When you browse on this site, cookies collect data to enhance your experience and personalize the content and advertising you see.
Visit our Privacy Policy to learn more. By continuing to use the site, you agree to this use of cookies and data.
  • en Suisse
  • Liste des pays
  • À 7 jours
  • Température de l'eau
  • Carte satellitaire
  • Carte météo
  • Widgets météo
  • user-avatar
    Se connecter

    Météo par heure à Franceville

    Ce jour, 17 Juillet, Mercredi

    Heure Température Précipitation Vent Pression Humidité
    00:00 +24°C° 0.2 mm 0 m/s 732 mmHg 83%
    01:00 +23°C° 0.2 mm 0 m/s 732 mmHg 85%
    02:00 +23°C° 0 mm 0 m/s 732 mmHg 86%
    03:00 +23°C° 0 mm 0 m/s 731 mmHg 88%
    04:00 +23°C° 0 mm 0 m/s 731 mmHg 89%
    05:00 +23°C° 0.1 mm 0 m/s 732 mmHg 89%
    06:00 +23°C° 0.1 mm 0 m/s 732 mmHg 89%
    07:00 +25°C° 0.1 mm 1 m/s 733 mmHg 88%
    08:00 +27°C° 0.1 mm 1 m/s 733 mmHg 80%
    09:00 +29°C° 0.1 mm 1 m/s 733 mmHg 71%
    10:00 +31°C° 0.1 mm 1 m/s 734 mmHg 62%
    11:00 +33°C° 0 mm 1 m/s 733 mmHg 55%
    12:00 +33°C° 0 mm 0 m/s 732 mmHg 48%
    13:00 +35°C° 0 mm 0 m/s 732 mmHg 40%
    14:00 +34°C° 0.1 mm 0 m/s 731 mmHg 43%
    15:00 +33°C° 0.1 mm 0 m/s 730 mmHg 45%
    16:00 +32°C° 0.1 mm 0 m/s 729 mmHg 48%
    17:00 +32°C° 0.5 mm 1 m/s 730 mmHg 58%
    18:00 +30°C° 0.5 mm 1 m/s 730 mmHg 67%
    19:00 +28°C° 0.5 mm 2 m/s 731 mmHg 77%
    20:00 +27°C° 1.3 mm 1 m/s 731 mmHg 80%
    21:00 +27°C° 1.3 mm 1 m/s 731 mmHg 83%
    22:00 +26°C° 1.3 mm 1 m/s 732 mmHg 86%
    23:00 +26°C° 0.2 mm 1 m/s 732 mmHg 87%

    Demain, 18 Juillet, Jeudi

    Heure Température Précipitation Vent Pression Humidité
    00:00 +26°C° 0.2 mm 1 m/s 732 mmHg 88%
    01:00 +25°C° 0.2 mm 1 m/s 732 mmHg 89%
    02:00 +25°C° 0.2 mm 1 m/s 731 mmHg 90%
    03:00 +25°C° 0.2 mm 1 m/s 731 mmHg 92%
    04:00 +22°C° 0.2 mm 0 m/s 731 mmHg 93%
    05:00 +22°C° 0.3 mm 0 m/s 731 mmHg 93%
    06:00 +22°C° 0.3 mm 0 m/s 732 mmHg 93%
    07:00 +22°C° 0.3 mm 0 m/s 732 mmHg 93%
    08:00 +24°C° 0 mm 0 m/s 732 mmHg 84%
    09:00 +28°C° 0 mm 1 m/s 733 mmHg 76%
    10:00 +30°C° 0 mm 1 m/s 733 mmHg 67%
    11:00 +31°C° 0 mm 1 m/s 732 mmHg 63%
    12:00 +32°C° 0 mm 1 m/s 732 mmHg 59%
    13:00 +32°C° 0 mm 1 m/s 731 mmHg 55%
    14:00 +33°C° 0 mm 1 m/s 730 mmHg 54%
    15:00 +33°C° 0 mm 1 m/s 729 mmHg 53%
    16:00 +33°C° 0 mm 1 m/s 729 mmHg 52%
    17:00 +31°C° 1.1 mm 1 m/s 729 mmHg 62%
    18:00 +29°C° 1.1 mm 1 m/s 730 mmHg 72%
    19:00 +27°C° 1.1 mm 1 m/s 730 mmHg 82%
    20:00 +27°C° 0.4 mm 1 m/s 731 mmHg 84%
    21:00 +26°C° 0.4 mm 1 m/s 731 mmHg 86%
    22:00 +26°C° 0.4 mm 1 m/s 732 mmHg 87%
    23:00 +26°C° 0 mm 1 m/s 731 mmHg 88%

    Après-demain, 19 Juillet, Vendredi

    Heure Température Précipitation Vent Pression Humidité
    00:00 +25°C° 0 mm 1 m/s 731 mmHg 89%
    01:00 +25°C° 0 mm 1 m/s 731 mmHg 90%
    02:00 +25°C° 0 mm 1 m/s 731 mmHg 91%
    03:00 +22°C° 0 mm 0 m/s 731 mmHg 92%
    04:00 +22°C° 0 mm 0 m/s 731 mmHg 93%
    05:00 +22°C° 0 mm 0 m/s 731 mmHg 92%
    06:00 +22°C° 0 mm 0 m/s 732 mmHg 91%
    07:00 +23°C° 0 mm 0 m/s 732 mmHg 90%
    08:00 +26°C° 0 mm 1 m/s 733 mmHg 84%
    09:00 +27°C° 0 mm 1 m/s 733 mmHg 77%
    10:00 +28°C° 0 mm 1 m/s 733 mmHg 71%
    11:00 +29°C° 0 mm 1 m/s 733 mmHg 66%
    12:00 +31°C° 0 mm 2 m/s 732 mmHg 60%
    13:00 +32°C° 0 mm 2 m/s 732 mmHg 54%
    14:00 +32°C° 0.1 mm 1 m/s 731 mmHg 55%
    15:00 +32°C° 0.1 mm 1 m/s 731 mmHg 55%
    16:00 +31°C° 0.1 mm 1 m/s 730 mmHg 55%
    17:00 +30°C° 0.3 mm 1 m/s 730 mmHg 63%
    18:00 +28°C° 0.3 mm 1 m/s 731 mmHg 71%
    19:00 +27°C° 0.3 mm 1 m/s 731 mmHg 79%
    20:00 +26°C° 0 mm 1 m/s 731 mmHg 81%
    21:00 +26°C° 0 mm 1 m/s 732 mmHg 82%
    22:00 +23°C° 0 mm 0 m/s 732 mmHg 84%
    23:00 +25°C° 0 mm 1 m/s 732 mmHg 85%

    20 Juillet, Samedi

    Heure Température Précipitation Vent Pression Humidité
    00:00 +25°C° 0 mm 1 m/s 732 mmHg 86%
    01:00 +24°C° 0 mm 1 m/s 732 mmHg 87%
    02:00 +24°C° 0 mm 1 m/s 732 mmHg 88%
    03:00 +24°C° 0 mm 1 m/s 732 mmHg 89%
    04:00 +23°C° 0 mm 1 m/s 731 mmHg 91%
    05:00 +23°C° 0 mm 1 m/s 732 mmHg 91%
    06:00 +24°C° 0 mm 1 m/s 732 mmHg 91%
    07:00 +22°C° 0 mm 0 m/s 733 mmHg 91%
    08:00 +25°C° 0 mm 1 m/s 733 mmHg 82%
    09:00 +27°C° 0 mm 1 m/s 733 mmHg 74%
    10:00 +29°C° 0 mm 2 m/s 734 mmHg 66%
    11:00 +30°C° 0 mm 2 m/s 733 mmHg 62%
    12:00 +31°C° 0 mm 2 m/s 733 mmHg 58%
    13:00 +32°C° 0 mm 2 m/s 732 mmHg 54%
    14:00 +32°C° 0.1 mm 2 m/s 731 mmHg 54%
    15:00 +32°C° 0.1 mm 1 m/s 731 mmHg 54%
    16:00 +32°C° 0.1 mm 1 m/s 730 mmHg 54%
    17:00 +30°C° 0.3 mm 1 m/s 731 mmHg 62%
    18:00 +28°C° 0.3 mm 1 m/s 731 mmHg 70%
    19:00 +26°C° 0.3 mm 1 m/s 731 mmHg 78%
    20:00 +26°C° 0.3 mm 1 m/s 732 mmHg 80%
    21:00 +25°C° 0.3 mm 1 m/s 732 mmHg 83%
    22:00 +25°C° 0.3 mm 1 m/s 733 mmHg 85%
    23:00 +25°C° 0 mm 1 m/s 733 mmHg 86%

    21 Juillet, Dimanche

    Heure Température Précipitation Vent Pression Humidité
    00:00 +24°C° 0 mm 1 m/s 733 mmHg 88%
    01:00 +24°C° 0 mm 1 m/s 733 mmHg 90%
    02:00 +23°C° 0 mm 1 m/s 732 mmHg 91%
    03:00 +23°C° 0 mm 1 m/s 732 mmHg 91%
    04:00 +23°C° 0 mm 1 m/s 732 mmHg 92%
    05:00 +23°C° 0 mm 1 m/s 732 mmHg 91%
    06:00 +23°C° 0 mm 1 m/s 733 mmHg 91%
    07:00 +21°C° 0 mm 0 m/s 733 mmHg 90%
    08:00 +25°C° 0 mm 1 m/s 734 mmHg 81%
    09:00 +27°C° 0 mm 1 m/s 734 mmHg 73%
    10:00 +29°C° 0 mm 1 m/s 734 mmHg 64%
    11:00 +30°C° 0 mm 1 m/s 734 mmHg 58%
    12:00 +32°C° 0 mm 2 m/s 733 mmHg 52%
    13:00 +34°C° 0 mm 2 m/s 732 mmHg 47%
    14:00 +34°C° 0.1 mm 2 m/s 732 mmHg 48%
    15:00 +34°C° 0.1 mm 2 m/s 731 mmHg 49%
    16:00 +32°C° 0.1 mm 2 m/s 731 mmHg 50%
    17:00 +30°C° 0.5 mm 2 m/s 731 mmHg 59%
    18:00 +29°C° 0.5 mm 1 m/s 731 mmHg 68%
    19:00 +27°C° 0.5 mm 1 m/s 731 mmHg 77%
    20:00 +27°C° 0.2 mm 1 m/s 731 mmHg 78%
    21:00 +24°C° 0.2 mm 0 m/s 732 mmHg 80%
    22:00 +24°C° 0.2 mm 0 m/s 732 mmHg 81%
    23:00 +26°C° 0.2 mm 1 m/s 732 mmHg 81%

    22 Juillet, Lundi

    Heure Température Précipitation Vent Pression Humidité
    00:00 +26°C° 0.2 mm 1 m/s 732 mmHg 81%
    01:00 +25°C° 0.2 mm 1 m/s 732 mmHg 81%
    02:00 +25°C° 0.1 mm 1 m/s 732 mmHg 83%
    03:00 +24°C° 0.1 mm 1 m/s 732 mmHg 86%
    04:00 +24°C° 0.1 mm 1 m/s 732 mmHg 88%
    05:00 +24°C° 0 mm 1 m/s 732 mmHg 88%
    06:00 +24°C° 0 mm 1 m/s 733 mmHg 88%
    07:00 +22°C° 0 mm 0 m/s 733 mmHg 88%
    08:00 +26°C° 0 mm 1 m/s 733 mmHg 81%
    09:00 +27°C° 0 mm 1 m/s 734 mmHg 74%
    10:00 +29°C° 0 mm 1 m/s 734 mmHg 66%
    11:00 +30°C° 0 mm 1 m/s 733 mmHg 59%
    12:00 +32°C° 0 mm 1 m/s 732 mmHg 52%
    13:00 +34°C° 0 mm 1 m/s 732 mmHg 44%
    14:00 +34°C° 0 mm 1 m/s 731 mmHg 44%
    15:00 +34°C° 0 mm 1 m/s 730 mmHg 43%
    16:00 +34°C° 0 mm 1 m/s 730 mmHg 42%
    17:00 +33°C° 0 mm 1 m/s 730 mmHg 49%
    18:00 +31°C° 0 mm 1 m/s 730 mmHg 55%
    19:00 +29°C° 0 mm 1 m/s 730 mmHg 62%
    20:00 +28°C° 0.3 mm 1 m/s 731 mmHg 66%
    21:00 +28°C° 0.3 mm 1 m/s 731 mmHg 70%
    22:00 +27°C° 0.3 mm 1 m/s 732 mmHg 74%
    23:00 +26°C° 0.1 mm 1 m/s 732 mmHg 76%
    Voir plus